| time (UTC) | temp F | wind direction | speed MPH | gust MPH | rain 1hr in | rain 24hr in | rain mn in | humidity % | barometer mb |
| 20260507114005 | 58 | 153 | 4.0 | 10.0 | 0.00 | 0.06 | 0.00 | 60 | 1016.0 |
| 20260507113006 | 58 | 145 | 4.0 | 10.0 | 0.00 | 0.06 | 0.00 | 57 | 1016.1 |
| 20260507112004 | 59 | 60 | 4.0 | 8.0 | 0.00 | 0.06 | 0.00 | 61 | 1016.0 |
| 20260507111005 | 58 | 56 | 4.0 | 8.0 | 0.00 | 0.06 | 0.00 | 63 | 1016.1 |
| 20260507110004 | 57 | 87 | 4.0 | 8.0 | 0.00 | 0.06 | 0.00 | 62 | 1016.2 |
| 20260507105006 | 56 | 70 | 4.0 | 8.0 | 0.00 | 0.06 | 0.00 | 63 | 1016.3 |
| 20260507104005 | 57 | 82 | 3.0 | 6.0 | 0.00 | 0.06 | 0.00 | 61 | 1016.2 |
| 20260507103006 | 58 | 91 | 3.0 | 6.0 | 0.00 | 0.06 | 0.00 | 61 | 1016.3 |
| 20260507102006 | 60 | 81 | 3.0 | 6.0 | 0.00 | 0.06 | 0.00 | 61 | 1016.2 |
| 20260507101005 | 58 | 22 | 3.0 | 8.0 | 0.00 | 0.06 | 0.00 | 62 | 1016.0 |
| 20260507100007 | 57 | 3 | 2.0 | 4.0 | 0.00 | 0.06 | 0.00 | 67 | 1016.0 |
| 20260507095006 | 54 | 61 | 4.0 | 6.0 | 0.00 | 0.06 | 0.00 | 66 | 1016.0 |
| 20260507094004 | 55 | 33 | 4.0 | 8.0 | 0.00 | 0.06 | 0.00 | 66 | 1015.8 |
| 20260507093003 | 56 | 60 | 3.0 | 7.0 | 0.00 | 0.06 | 0.00 | 65 | 1015.8 |
| 20260507092004 | 54 | 140 | 2.0 | 4.0 | 0.00 | 0.06 | 0.00 | 70 | 1015.9 |
| 20260507091216 | 55 | 128 | 2.0 | 4.0 | 0.00 | 0.06 | 0.00 | 69 | 1015.9 |
| 20260507090006 | 54 | 111 | 2.0 | 4.0 | 0.00 | 0.06 | 0.00 | 72 | 1015.8 |
| 20260507085005 | 53 | 43 | 3.0 | 4.0 | 0.00 | 0.06 | 0.00 | 71 | 1015.7 |
| 20260507084005 | 53 | 86 | 2.0 | 4.0 | 0.00 | 0.06 | 0.00 | 72 | 1015.7 |
| 20260507083004 | 53 | 34 | 2.0 | 4.0 | 0.00 | 0.06 | 0.00 | 72 | 1015.6 |
| 20260507082003 | 53 | 77 | 2.0 | 4.0 | 0.00 | 0.06 | 0.00 | 72 | 1015.7 |
| 20260507081006 | 54 | 94 | 2.0 | 4.0 | 0.00 | 0.06 | 0.00 | 70 | 1015.6 |
| 20260507080006 | 54 | 105 | 3.0 | 4.0 | 0.00 | 0.06 | 0.00 | 71 | 1015.5 |
| 20260507075004 | 54 | 88 | 2.0 | 4.0 | 0.00 | 0.06 | 0.00 | 74 | 1015.5 |
| 20260507074003 | 53 | 125 | 2.0 | 6.0 | 0.00 | 0.06 | 0.00 | 76 | 1015.3 |
| 20260507073005 | 51 | 114 | 3.0 | 6.0 | 0.00 | 0.06 | 0.00 | 74 | 1015.3 |
| 20260507072006 | 53 | 47 | 3.0 | 6.0 | 0.00 | 0.06 | 0.00 | 80 | 1015.2 |
| 20260507071005 | 52 | 52 | 2.0 | 5.0 | 0.00 | 0.06 | 0.00 | 85 | 1015.3 |
| 20260507070006 | 51 | 67 | 3.0 | 6.0 | 0.00 | 0.06 | 0.00 | 91 | 1015.2 |
| 20260507065006 | 50 | 66 | 3.0 | 5.0 | 0.00 | 0.06 | 0.00 | 96 | 1015.3 |
| 20260507064004 | 49 | 66 | 2.0 | 4.0 | 0.00 | 0.06 | 0.00 | 99 | 1015.2 |
| 20260507063006 | 47 | 61 | 2.0 | 4.0 | 0.00 | 0.06 | 0.00 | 99 | 1015.2 |
| 20260507062005 | 47 | 81 | 2.0 | 4.0 | 0.00 | 0.06 | 0.00 | 99 | 1015.2 |
| 20260507061218 | 46 | 37 | 1.0 | 2.0 | 0.00 | 0.06 | 0.00 | 99 | 1015.1 |
| 20260507060219 | 44 | 45 | 0.0 | 2.0 | 0.00 | 0.06 | 0.00 | 99 | 1015.1 |
| 20260507055003 | 43 | 45 | 0.0 | 2.0 | 0.00 | 0.06 | 0.00 | 99 | 1014.9 |
| 20260507054003 | 41 | 45 | 0.0 | 2.0 | 0.00 | 0.06 | 0.00 | 99 | 1015.1 |
| 20260507053217 | 40 | 0 | 0.0 | 0.0 | 0.00 | 0.06 | 0.00 | 99 | 1014.9 |
| 20260507052005 | 39 | 315 | 0.0 | 1.0 | 0.00 | 0.06 | 0.00 | 99 | 1014.8 |
| 20260507051213 | 39 | 315 | 0.0 | 2.0 | 0.00 | 0.06 | 0.00 | 99 | 1014.8 |
| 20260507050008 | 39 | 315 | 1.0 | 2.0 | 0.00 | 0.06 | 0.00 | 99 | 1014.9 |
| 20260507045005 | 39 | 315 | 0.0 | 2.0 | 0.00 | 0.06 | 0.00 | 99 | 1014.7 |
| 20260507044005 | 38 | 315 | 0.0 | 2.0 | 0.00 | 0.06 | 0.00 | 99 | 1014.7 |
| 20260507043003 | 39 | 315 | 1.0 | 2.0 | 0.00 | 0.06 | 0.00 | 99 | 1014.5 |
| 20260507042006 | 39 | 315 | 1.0 | 2.0 | 0.00 | 0.06 | 0.00 | 99 | 1014.4 |
| 20260507041006 | 39 | 335 | 0.0 | 2.0 | 0.00 | 0.06 | 0.00 | 99 | 1014.3 |
| 20260507040004 | 39 | 360 | 0.0 | 2.0 | 0.00 | 0.06 | 0.00 | 99 | 1014.2 |
| 20260507035003 | 40 | 360 | 0.0 | 2.0 | 0.00 | 0.06 | 0.00 | 99 | 1014.1 |
| 20260507034007 | 40 | 10 | 1.0 | 2.0 | 0.00 | 0.06 | 0.00 | 99 | 1014.2 |
| 20260507033003 | 40 | 45 | 0.0 | 2.0 | 0.00 | 0.06 | 0.00 | 99 | 1014.2 |
| 20260507032005 | 40 | 45 | 1.0 | 2.0 | 0.00 | 0.06 | 0.00 | 99 | 1014.3 |
| 20260507031004 | 40 | 45 | 1.0 | 2.0 | 0.00 | 0.06 | 0.00 | 99 | 1014.2 |
| 20260507030005 | 40 | 8 | 1.0 | 3.0 | 0.00 | 0.06 | 0.00 | 99 | 1014.2 |
| 20260507025006 | 40 | 18 | 1.0 | 3.0 | 0.00 | 0.06 | 0.00 | 99 | 1014.3 |
| 20260507024218 | 40 | 16 | 1.0 | 3.0 | 0.00 | 0.06 | 0.00 | 99 | 1014.2 |
| 20260507023003 | 40 | 360 | 0.0 | 2.0 | 0.00 | 0.06 | 0.00 | 99 | 1014.2 |
| 20260507022005 | 40 | 14 | 0.0 | 2.0 | 0.00 | 0.06 | 0.00 | 98 | 1014.2 |
| 20260507021006 | 40 | 0 | 0.0 | 1.0 | 0.00 | 0.06 | 0.00 | 98 | 1014.1 |
| 20260507020005 | 40 | 360 | 0.0 | 2.0 | 0.00 | 0.06 | 0.00 | 98 | 1014.1 |
| 20260507015217 | 40 | 1 | 1.0 | 2.0 | 0.00 | 0.06 | 0.00 | 98 | 1014.1 |
| 20260507014003 | 41 | 14 | 1.0 | 3.0 | 0.00 | 0.06 | 0.00 | 97 | 1014.0 |
| 20260507013004 | 41 | 41 | 1.0 | 3.0 | 0.00 | 0.06 | 0.00 | 97 | 1013.9 |
| 20260507012006 | 41 | 41 | 1.0 | 3.0 | 0.00 | 0.06 | 0.00 | 97 | 1014.0 |
| 20260507010217 | 41 | 360 | 1.0 | 2.0 | 0.00 | 0.06 | 0.00 | 96 | 1014.0 |
| 20260507005006 | 42 | 15 | 1.0 | 2.0 | 0.00 | 0.06 | 0.00 | 96 | 1014.0 |
| 20260507004003 | 42 | 9 | 1.0 | 2.0 | 0.00 | 0.06 | 0.00 | 96 | 1014.0 |
| 20260507003220 | 42 | 360 | 1.0 | 2.0 | 0.00 | 0.06 | 0.00 | 95 | 1014.0 |
| 20260507002216 | 42 | 20 | 1.0 | 2.0 | 0.00 | 0.06 | 0.00 | 95 | 1014.1 |
| 20260507001003 | 43 | 8 | 1.0 | 2.0 | 0.00 | 0.06 | 0.00 | 95 | 1014.1 |
| 20260507000004 | 43 | 7 | 1.0 | 3.0 | 0.00 | 0.06 | 0.00 | 95 | 1014.2 |
| 20260506235005 | 44 | 34 | 2.0 | 3.0 | 0.00 | 0.06 | 0.00 | 95 | 1014.2 |
| 20260506234003 | 44 | 45 | 2.0 | 4.0 | 0.00 | 0.06 | 0.00 | 95 | 1014.2 |
| 20260506233005 | 44 | 19 | 2.0 | 4.0 | 0.00 | 0.06 | 0.00 | 95 | 1014.1 |
| 20260506232216 | 44 | 18 | 2.0 | 4.0 | 0.00 | 0.06 | 0.00 | 95 | 1014.2 |
| 20260506231005 | 44 | 22 | 1.0 | 4.0 | 0.00 | 0.06 | 0.00 | 95 | 1014.1 |
| 20260506230005 | 44 | 25 | 2.0 | 4.0 | 0.00 | 0.06 | 0.00 | 95 | 1014.2 |
| 20260506225005 | 44 | 8 | 1.0 | 3.0 | 0.00 | 0.06 | 0.06 | 94 | 1014.3 |
| 20260506224003 | 44 | 360 | 1.0 | 2.0 | 0.00 | 0.06 | 0.06 | 94 | 1014.2 |
| 20260506223216 | 44 | 17 | 2.0 | 3.0 | 0.00 | 0.06 | 0.06 | 94 | 1014.1 |
| 20260506222003 | 45 | 30 | 2.0 | 4.0 | 0.00 | 0.06 | 0.06 | 93 | 1014.0 |
| 20260506221003 | 45 | 38 | 2.0 | 4.0 | 0.00 | 0.06 | 0.06 | 93 | 1013.9 |
| 20260506220003 | 45 | 46 | 3.0 | 6.0 | 0.00 | 0.06 | 0.06 | 93 | 1013.9 |
| 20260506215004 | 46 | 48 | 2.0 | 4.0 | 0.00 | 0.06 | 0.06 | 89 | 1013.9 |
| 20260506214003 | 46 | 45 | 2.0 | 4.0 | 0.00 | 0.06 | 0.06 | 89 | 1013.9 |
| 20260506213006 | 46 | 38 | 2.0 | 4.0 | 0.00 | 0.06 | 0.06 | 89 | 1014.0 |
| 20260506212003 | 46 | 47 | 2.0 | 4.0 | 0.00 | 0.06 | 0.06 | 89 | 1013.8 |
| 20260506211005 | 47 | 45 | 2.0 | 4.0 | 0.00 | 0.06 | 0.06 | 89 | 1013.9 |
| 20260506210005 | 47 | 59 | 2.0 | 3.0 | 0.00 | 0.06 | 0.06 | 89 | 1013.8 |
| 20260506205003 | 47 | 58 | 2.0 | 4.0 | 0.00 | 0.06 | 0.06 | 89 | 1013.8 |
| 20260506204006 | 47 | 68 | 3.0 | 5.0 | 0.00 | 0.06 | 0.06 | 89 | 1013.8 |
| 20260506203003 | 47 | 62 | 4.0 | 8.0 | 0.00 | 0.06 | 0.06 | 90 | 1013.7 |
| 20260506202006 | 47 | 75 | 3.0 | 7.0 | 0.00 | 0.06 | 0.06 | 90 | 1013.7 |
| 20260506201004 | 47 | 45 | 2.0 | 4.0 | 0.00 | 0.06 | 0.06 | 90 | 1013.7 |
| 20260506200005 | 47 | 82 | 1.0 | 4.0 | 0.00 | 0.06 | 0.06 | 89 | 1013.6 |
| 20260506195216 | 47 | 115 | 1.0 | 3.0 | 0.00 | 0.06 | 0.06 | 89 | 1013.5 |
| 20260506194003 | 47 | 97 | 2.0 | 4.0 | 0.00 | 0.06 | 0.06 | 89 | 1013.2 |
| 20260506193213 | 48 | 79 | 2.0 | 4.0 | 0.00 | 0.06 | 0.06 | 90 | 1013.3 |
| 20260506192005 | 48 | 69 | 2.0 | 6.0 | 0.00 | 0.06 | 0.06 | 90 | 1013.4 |
| 20260506191005 | 48 | 90 | 0.0 | 2.0 | 0.00 | 0.06 | 0.06 | 90 | 1013.1 |
| 20260506190006 | 49 | 126 | 1.0 | 2.0 | 0.00 | 0.06 | 0.06 | 90 | 1013.1 |
| 20260506185217 | 49 | 60 | 1.0 | 4.0 | 0.00 | 0.06 | 0.06 | 91 | 1012.9 |
| 20260506184217 | 49 | 62 | 2.0 | 4.0 | 0.00 | 0.06 | 0.06 | 91 | 1012.9 |
| 20260506183003 | 49 | 67 | 3.0 | 5.0 | 0.00 | 0.06 | 0.06 | 92 | 1012.9 |
| 20260506182225 | 49 | 60 | 2.0 | 4.0 | 0.00 | 0.06 | 0.06 | 92 | 1012.7 |
| 20260506181006 | 49 | 77 | 1.0 | 4.0 | 0.00 | 0.06 | 0.06 | 92 | 1012.6 |
| 20260506180216 | 50 | 315 | 0.0 | 2.0 | 0.00 | 0.06 | 0.06 | 92 | 1012.6 |
| 20260506175006 | 50 | 135 | 0.0 | 2.0 | 0.00 | 0.06 | 0.06 | 92 | 1012.4 |
| 20260506174003 | 50 | 302 | 1.0 | 3.0 | 0.00 | 0.06 | 0.06 | 91 | 1012.4 |
| 20260506173214 | 50 | 314 | 1.0 | 3.0 | 0.00 | 0.06 | 0.06 | 91 | 1012.3 |
| 20260506172004 | 50 | 319 | 1.0 | 3.0 | 0.00 | 0.06 | 0.06 | 90 | 1012.2 |
| 20260506171004 | 50 | 4 | 1.0 | 3.0 | 0.00 | 0.06 | 0.06 | 90 | 1012.2 |
| 20260506170005 | 50 | 45 | 0.0 | 2.0 | 0.00 | 0.06 | 0.06 | 90 | 1012.2 |
| 20260506165003 | 50 | 73 | 0.0 | 2.0 | 0.00 | 0.06 | 0.06 | 90 | 1012.2 |
| 20260506164219 | 50 | 331 | 0.0 | 2.0 | 0.00 | 0.06 | 0.06 | 90 | 1012.2 |
| 20260506163003 | 50 | 332 | 0.0 | 2.0 | 0.02 | 0.06 | 0.06 | 89 | 1012.4 |
| 20260506162216 | 51 | 0 | 0.0 | 1.0 | 0.04 | 0.06 | 0.06 | 89 | 1012.4 |
| 20260506161005 | 51 | 70 | 0.0 | 2.0 | 0.04 | 0.06 | 0.06 | 89 | 1012.2 |
| 20260506160005 | 50 | 79 | 1.0 | 4.0 | 0.04 | 0.06 | 0.06 | 88 | 1012.2 |
| 20260506155005 | 50 | 100 | 1.0 | 3.0 | 0.04 | 0.06 | 0.06 | 87 | 1012.2 |
| 20260506154007 | 50 | 172 | 1.0 | 4.0 | 0.02 | 0.05 | 0.05 | 86 | 1012.2 |
| 20260506153220 | 51 | 130 | 2.0 | 6.0 | 0.01 | 0.04 | 0.04 | 85 | 1012.1 |
| 20260506152006 | 51 | 54 | 2.0 | 4.0 | 0.00 | 0.02 | 0.02 | 84 | 1012.0 |
| 20260506151005 | 52 | 85 | 2.0 | 4.0 | 0.00 | 0.02 | 0.02 | 84 | 1012.0 |
| 20260506150004 | 52 | 6 | 2.0 | 4.0 | 0.00 | 0.02 | 0.02 | 84 | 1011.8 |
| 20260506145003 | 53 | 359 | 2.0 | 4.0 | 0.00 | 0.02 | 0.02 | 85 | 1011.9 |
| 20260506144005 | 53 | 19 | 3.0 | 4.0 | 0.01 | 0.02 | 0.02 | 86 | 1011.9 |
| 20260506143003 | 53 | 8 | 3.0 | 6.0 | 0.01 | 0.02 | 0.02 | 89 | 1011.8 |
| 20260506142005 | 53 | 349 | 2.0 | 4.0 | 0.01 | 0.02 | 0.02 | 90 | 1012.0 |
| 20260506141005 | 52 | 14 | 2.0 | 8.0 | 0.01 | 0.02 | 0.02 | 91 | 1012.1 |
| 20260506140005 | 51 | 3 | 2.0 | 4.0 | 0.01 | 0.02 | 0.02 | 91 | 1012.1 |
| 20260506135006 | 50 | 21 | 3.0 | 8.0 | 0.01 | 0.02 | 0.02 | 90 | 1012.1 |
| 20260506134005 | 50 | 7 | 3.0 | 7.0 | 0.00 | 0.01 | 0.01 | 90 | 1012.1 |
| 20260506133217 | 50 | 27 | 4.0 | 7.0 | 0.01 | 0.01 | 0.01 | 90 | 1012.1 |
| 20260506132003 | 50 | 40 | 6.0 | 11.0 | 0.01 | 0.01 | 0.01 | 89 | 1012.1 |
| 20260506131003 | 51 | 25 | 4.0 | 8.0 | 0.01 | 0.01 | 0.01 | 89 | 1012.0 |
| 20260506130004 | 51 | 39 | 5.0 | 8.0 | 0.01 | 0.01 | 0.01 | 89 | 1012.0 |
| 20260506125006 | 51 | 40 | 5.0 | 9.0 | 0.01 | 0.01 | 0.01 | 88 | 1011.9 |
| 20260506124005 | 51 | 41 | 5.0 | 8.0 | 0.01 | 0.01 | 0.01 | 87 | 1011.8 |
| 20260506123005 | 51 | 28 | 6.0 | 12.0 | 0.00 | 0.00 | 0.00 | 86 | 1011.8 |
| 20260506122004 | 51 | 43 | 5.0 | 9.0 | 0.00 | 0.00 | 0.00 | 86 | 1011.8 |
| 20260506121005 | 52 | 7 | 4.0 | 7.0 | 0.00 | 0.00 | 0.00 | 87 | 1011.8 |
| 20260506120004 | 51 | 14 | 4.0 | 8.0 | 0.00 | 0.00 | 0.00 | 89 | 1011.8 |
| 20260506115003 | 51 | 25 | 4.0 | 8.0 | 0.00 | 0.00 | 0.00 | 89 | 1011.7 |